EHI
0 1 1 1 0 0 0 0 0 2 6 6 4 4 2 2 1 0 0 0 0 0 0 0 1 2 1 0 1 2 2 2 3 3 1 0 1 2 3 3 3 4 5
0 0 0 0 0 0 0 0 0 2 5 5 4 3 2 1 1 0 0 0 1 1 0 0 1 2 1 0 0 1 2 3 3 3 2 1 1 2 3 3 3 4 5
0 0 0 0 0 0 0 0 0 2 4 4 3 3 2 1 0 0 0 0 1 1 0 0 1 1 1 0 0 1 2 3 3 3 2 1 1 2 2 2 4 5 5
0 0 0 0 0 0 0 0 0 1 2 3 3 3 2 1 0 0 0 0 1 1 0 0 0 1 1 0 0 1 3 3 3 2 1 0 1 1 1 1 3 4 4
0 0 0 0 0 0 0 0 0 0 1 1 2 3 3 2 1 0 0 0 0 0 0 0 0 0 0 0 1 2 3 3 2 1 0 0 0 0 1 1 1 2 2
0 0 1 1 1 0 0 0 0 0 0 0 1 3 3 3 3 2 0 0 0 0 0 0 0 0 0 0 1 2 3 2 1 0 0 0 0 0 1 2 2 1 1
0 0 1 2 1 1 1 1 0 0 0 0 1 2 3 4 4 2 0 0 0 0 0 0 0 0 0 0 1 1 1 1 1 0 0 0 0 0 1 3 3 1 0
0 0 1 1 1 2 2 2 1 0 0 0 1 1 2 3 3 2 0 0 0 0 0 1 1 1 1 0 0 0 0 1 1 0 0 0 0 0 1 2 3 2 2
0 0 0 0 1 2 3 2 1 1 1 1 1 0 1 1 1 1 1 0 0 0 0 0 1 2 1 0 0 0 0 1 1 0 0 0 0 0 0 1 2 3 4
0 0 0 0 0 1 1 2 2 2 2 1 0 0 0 0 1 1 1 0 0 0 0 0 1 2 1 0 0 0 1 1 1 0 0 0 0 0 1 2 3 4 5
0 0 0 0 0 0 0 1 1 2 2 1 0 0 0 0 0 0 0 1 1 0 0 0 1 2 1 1 1 1 1 1 0 0 0 0 0 0 1 2 3 4 5
0 0 0 0 0 0 0 0 0 1 1 0 0 0 1 1 0 0 0 1 1 0 0 0 1 2 2 1 0 0 0 0 0 0 0 1 1 0 1 1 2 4 5
0 0 0 0 0 0 0 0 0 0 0 0 0 0 1 1 0 0 0 1 1 1 1 0 0 1 1 0 0 0 0 0 0 0 1 2 2 1 1 2 2 3 5
0 0 0 0 1 1 1 0 0 1 0 0 0 0 0 0 0 0 0 1 2 2 1 0 0 0 0 0 0 0 0 0 0 0 1 2 3 2 2 3 3 3 4
0 0 0 1 2 2 2 1 0 0 0 0 0 0 0 0 0 0 0 1 1 1 1 0 0 0 0 0 0 0 0 0 0 0 1 2 3 3 2 2 2 2 3
0 0 1 2 3 3 2 1 0 0 0 0 1 1 1 0 0 0 0 0 0 0 0 0 0 1 1 1 0 0 0 0 0 0 0 1 2 4 3 2 1 1 2
0 1 2 3 3 3 1 0 0 0 0 0 1 2 2 1 0 0 0 0 0 0 0 0 0 1 2 1 0 0 0 0 0 0 0 0 1 4 5 4 4 4 4
2 3 3 3 3 2 1 0 1 1 1 1 1 2 2 1 0 0 0 0 0 0 0 0 0 1 1 1 0 0 0 0 0 0 0 0 1 3 6 9 10 9 7
4 4 4 3 3 1 0 1 2 2 2 2 2 2 1 1 1 1 1 0 0 0 0 0 0 0 0 1 0 0 0 0 0 0 0 1 2 3 5 9 11 10 9
5 4 3 3 2 1 0 1 2 3 3 3 3 1 1 2 2 1 1 0 0 0 0 0 0 0 1 1 0 0 0 0 0 0 1 2 3 3 3 5 6 7 8
6 5 4 3 1 0 0 1 2 2 3 3 3 2 2 3 3 2 0 0 0 1 1 1 1 1 2 1 0 0 0 1 1 1 1 1 2 1 1 2 2 3 4
9 7 6 4 2 0 1 2 3 4 4 3 3 3 3 4 3 2 0 0 0 2 3 3 3 3 2 1 0 0 1 2 2 2 2 2 2 1 0 0 1 2 2
8 7 7 5 3 2 2 3 4 5 4 2 2 3 4 4 4 3 1 0 0 1 2 3 4 3 2 1 1 1 2 3 2 3 4 5 4 2 0 0 0 1 2
7 7 7 6 5 4 4 4 4 3 2 0 0 2 3 4 5 5 3 2 1 1 0 1 2 2 2 2 2 3 4 4 3 3 4 5 4 2 0 0 0 1 2
9 9 10 10 10 9 8 7 6 4 2 1 1 2 3 4 5 6 5 5 3 2 2 2 2 1 1 2 3 5 6 5 4 3 2 2 1 0 0 1 2 3 4
10 11 12 14 17 15 12 10 9 6 4 3 2 3 4 4 5 6 6 6 5 3 4 5 3 1 2 2 3 5 6 5 4 3 1 0 0 0 1 2 3 5 5
Wind_Speed
3 5 6 3 3 3 3 4 4 5 4 5 5 5 6 6 7 8 8 8 8 8 9 9 8 9 9 9 9 9 10 9 8 9 9 9 7 7 7 8 10 9 11
4 5 6 4 4 4 4 4 4 4 5 5 5 6 6 6 7 8 8 8 8 8 9 8 8 8 8 8 8 8 9 9 9 9 9 9 9 8 7 7 5 7 11
4 4 5 5 4 4 4 5 5 5 4 5 5 6 7 7 7 7 8 8 8 8 8 8 8 8 8 8 8 8 8 8 8 9 9 7 8 9 8 7 7 8 9
4 4 6 6 4 5 5 5 5 5 4 4 5 6 7 7 7 7 7 8 8 8 8 8 7 7 7 7 8 7 8 8 8 8 6 6 6 9 8 7 7 8 8
4 5 8 5 4 5 5 5 5 5 4 4 5 6 7 7 7 7 7 7 7 7 7 7 7 7 6 6 7 7 8 7 7 7 4 4 5 8 8 7 7 7 8
5 6 8 5 5 4 5 5 5 5 5 5 6 6 7 7 7 6 6 7 7 7 7 7 7 7 7 6 7 7 7 6 7 4 3 4 5 8 7 7 7 7 7
5 6 7 6 5 5 5 5 5 5 5 5 6 6 6 7 7 6 6 6 6 6 5 6 6 6 6 6 6 7 7 6 4 3 3 3 4 7 7 7 7 7 8
5 5 7 7 5 6 6 5 5 5 5 4 6 6 6 6 6 5 6 6 5 5 5 5 5 6 6 6 6 6 6 5 4 4 3 4 6 6 6 7 8 8 9
5 5 5 6 6 6 6 6 5 5 5 5 5 6 5 5 5 5 5 5 4 4 4 4 5 6 6 6 6 5 4 4 3 3 4 4 7 7 7 6 7 8 8
5 5 5 5 5 5 6 8 6 5 5 5 5 5 4 5 5 5 5 5 4 4 4 4 5 6 6 6 5 5 4 5 3 3 2 5 7 7 7 7 6 7 8
5 4 4 5 5 5 5 7 6 6 4 3 4 4 1 2 3 4 6 5 3 3 3 4 5 6 6 8 7 5 5 2 2 2 2 7 7 7 7 7 7 7 7
4 4 4 5 5 5 4 4 3 3 4 3 3 3 2 3 2 3 7 4 3 3 4 5 6 8 6 4 7 7 2 2 2 2 4 7 6 6 6 6 6 6 7
3 3 4 5 4 4 3 3 3 3 3 3 4 3 3 2 2 2 2 3 3 3 2 6 5 4 3 2 1 2 1 0 1 2 5 7 5 5 5 5 5 6 7
3 4 4 4 4 4 4 3 2 2 3 3 3 3 3 3 3 3 3 3 2 2 3 3 3 4 3 3 2 2 1 0 1 1 4 7 4 3 4 4 4 5 6
3 3 4 3 4 3 3 2 3 3 3 3 3 4 4 3 3 4 4 3 3 3 3 3 3 4 3 3 2 2 1 1 1 0 3 7 5 3 3 3 3 4 5
3 3 3 2 3 2 2 2 2 2 2 2 3 4 4 4 4 4 3 3 3 3 4 3 3 3 2 2 2 2 1 1 1 0 0 5 7 5 3 3 2 3 3
2 3 2 2 2 2 2 2 2 2 2 3 3 4 3 4 4 3 3 3 3 3 3 2 3 2 2 2 2 2 1 1 1 1 1 1 3 7 5 3 2 2 2
2 2 1 1 2 2 2 2 2 2 3 2 2 3 3 3 3 2 2 3 2 2 2 2 2 2 2 2 1 1 1 1 0 0 0 0 1 0 5 5 2 2 1
2 2 2 1 1 1 2 1 1 2 2 2 2 2 3 3 3 2 2 2 1 2 2 2 3 2 2 1 1 1 0 1 0 0 1 0 1 1 0 6 5 3 2
3 3 2 2 1 1 1 1 1 1 1 2 2 2 2 2 2 1 2 2 1 2 2 2 2 1 1 0 0 1 0 1 0 1 1 0 1 0 0 1 3 5 5
4 4 3 3 2 2 1 1 1 1 1 1 1 2 1 2 2 1 1 1 0 1 1 1 0 1 0 0 1 1 2 2 1 1 0 1 1 0 0 0 1 0 3
5 5 5 4 3 3 2 1 0 0 0 1 2 2 1 1 1 1 1 1 0 0 1 0 1 1 0 0 1 1 2 3 2 1 1 0 1 1 1 1 0 1 2
6 6 4 4 3 3 3 2 1 2 1 0 1 1 1 1 1 1 1 1 1 1 1 1 1 2 1 1 1 3 2 1 0 2 1 0 0 1 1 0 1 1 2
6 6 5 4 4 3 4 3 2 1 1 1 0 1 1 0 0 1 1 1 2 2 1 2 0 2 2 2 0 1 2 3 3 1 2 1 1 1 1 2 1 1 1
6 6 6 5 4 4 4 3 3 2 1 1 0 1 1 0 1 1 1 1 1 2 1 2 1 2 2 2 2 1 1 1 3 3 2 2 1 1 1 2 1 1 1
6 6 6 5 5 4 4 4 3 2 2 2 2 1 1 1 1 0 1 1 2 1 1 2 2 2 2 2 3 2 2 2 2 2 3 3 3 2 2 2 2 1 1
Wind_Direction
54 64 72 34 43 63 66 73 86 105 112 116 126 132 136 142 147 147 145 141 139 145 148 142 146 145 143 143 141 139 138 136 134 137 146 151 151 151 153 161 172 157 144
54 67 82 51 55 65 65 71 90 103 108 110 115 124 134 136 135 138 141 142 139 134 137 138 141 145 146 143 138 136 138 142 146 152 160 159 157 157 157 160 163 130 143
64 73 88 66 62 62 66 71 82 95 106 114 118 127 132 130 128 133 135 139 139 138 140 142 147 148 147 143 140 139 140 147 156 169 184 171 151 153 155 152 143 141 148
72 76 73 65 66 64 66 70 81 85 93 104 119 131 135 133 130 131 131 134 139 141 143 148 148 145 143 142 142 146 148 151 165 188 189 164 149 142 154 152 148 151 152
77 74 78 61 66 66 66 70 77 77 87 96 113 125 134 135 132 132 133 135 141 144 149 151 149 143 142 143 145 148 150 158 181 202 170 159 144 142 154 157 157 158 162
80 77 80 65 61 72 65 68 77 75 81 90 109 117 123 129 131 131 135 138 141 144 151 154 148 145 148 149 148 147 147 166 197 174 169 164 145 145 161 168 172 174 174
76 77 84 73 60 70 76 72 75 75 76 81 99 110 115 121 124 127 132 137 141 143 150 152 151 152 152 148 143 142 151 181 203 141 152 145 128 143 163 173 182 185 184
76 76 89 102 78 68 71 78 80 79 80 89 97 101 105 110 116 121 128 135 141 146 151 150 158 159 155 149 145 149 164 207 180 151 156 147 137 156 172 183 192 191 189
74 69 76 84 96 102 85 82 82 82 81 89 97 100 107 109 116 121 126 129 139 145 149 155 159 159 153 149 146 149 169 224 225 167 165 147 146 167 179 185 196 196 191
77 68 68 72 66 74 91 90 89 94 86 86 93 99 115 130 134 135 135 115 119 128 146 160 162 153 148 145 147 156 190 228 197 168 153 123 142 171 183 187 193 190 184
73 64 54 63 64 62 69 88 98 108 98 96 98 106 135 116 116 130 97 102 110 121 135 155 159 156 158 153 151 169 211 216 151 142 107 108 144 169 179 185 188 186 185
74 68 57 50 49 58 60 73 70 80 83 66 54 61 61 62 57 77 111 119 124 144 154 142 150 165 180 159 156 181 195 188 149 138 105 113 144 172 180 185 187 187 190
79 79 75 67 46 46 60 60 54 54 69 78 69 60 50 42 72 70 95 129 136 147 121 128 149 141 134 121 125 132 107 197 135 134 112 126 149 175 180 186 192 195 198
82 72 60 64 65 42 37 52 54 51 59 63 70 36 50 50 47 59 54 53 72 82 81 81 99 101 104 105 107 94 99 35 86 100 117 134 152 166 179 195 199 201 202
97 84 69 52 58 54 47 25 52 44 45 59 55 54 43 59 58 57 51 40 45 65 86 85 84 89 99 110 108 100 84 84 94 177 129 142 158 176 189 197 205 205 204
103 89 81 75 77 64 61 51 46 53 55 44 54 56 44 59 60 52 61 49 52 55 58 67 84 94 90 90 101 95 62 95 128 234 132 144 157 171 187 194 207 208 210
109 91 91 90 82 81 62 48 60 58 57 55 63 66 55 59 69 63 62 56 54 61 76 84 88 95 108 108 104 105 109 61 59 54 339 321 160 164 169 180 200 215 223
133 121 109 95 101 102 81 32 40 39 46 47 50 64 71 68 70 66 62 55 52 57 73 91 93 90 83 80 90 76 94 117 82 74 137 77 335 86 158 166 182 203 199
159 157 157 123 108 116 115 95 61 49 34 31 42 51 62 69 72 72 72 59 55 74 69 70 85 73 90 80 116 126 104 102 98 49 34 88 94 337 11 145 167 181 181
169 171 172 171 158 173 154 138 111 59 46 37 44 50 45 63 70 58 100 84 56 82 80 68 76 79 57 80 1 65 44 38 13 58 299 119 126 188 357 55 171 174 176
178 182 188 196 177 187 197 224 178 112 67 61 72 68 58 48 56 49 43 89 136 98 92 130 177 141 133 69 224 177 165 171 129 140 184 341 92 119 28 354 286 308 169
188 190 193 197 194 201 184 211 224 342 351 56 39 52 25 21 6 38 38 315 24 133 153 190 234 277 219 167 289 269 203 168 168 146 157 184 325 276 218 202 187 249 277
189 192 190 191 189 198 200 200 183 186 215 128 94 96 50 9 359 15 353 325 310 263 183 240 239 254 282 249 301 306 302 354 75 155 148 115 333 309 288 263 213 228 242
191 183 183 188 191 192 201 206 216 233 272 357 322 58 46 53 292 269 279 296 288 301 312 257 134 284 278 284 228 294 331 345 302 268 190 154 187 241 285 285 264 184 234
188 182 178 182 187 188 197 197 217 230 237 230 244 107 275 161 226 250 244 254 265 283 311 318 311 289 281 297 303 298 285 256 275 293 306 304 264 238 246 257 262 261 253
185 184 179 177 184 185 191 194 212 225 241 263 264 265 259 207 207 235 252 262 255 270 234 242 261 251 285 303 301 299 295 295 297 290 289 283 292 284 262 264 260 257 253